Content
SEND FEEDBACK

Daily
Averages
Monthly
Summary
United States of America

REDFIELD, KANSAS


Home > North America > United States > Kansas
Elevation: 806 feet     Latitude: 37 51N     Longitude: 094 42W

WEATHER
 
SELECT A DAY
Number of Records: 110,823;   Date Range: 2/11/10 - 9/15/14
 
SHARE

PRINT THIS DATA

[ ← Previous Day ]
WEATHER ALMANAC - JANUARY 3, 2013
[ Next Day → ]
[ °C ]   °F
Weather ElementAverageHighLow
Temperature29.8 °F42.1 °F (2:35 pm) (2:35 am)
Dewpoint25 °F32 °F (10:15 am) (7:00 pm)
Humidity84.6 %100 % (1:15 am)51 % (2:15 pm)
Barometer30.37 in30.43 in (11:35 pm)30.26 in (12:55 am)
Wind Speed2.8 mph8.1 mph (12:55 pm)
Weather ElementAverage
Visibility8.5 mi
Wind DirectionSSE (151.2 °)

Weather ElementTotal
Precipitation---
Heating Degree Days44 (Base 65)
Averaged from 69 records on January 3, 2013
WEATHER CONDITIONS BREAKOUT
WIND DIRECTION BREAKOUT
WEATHER BY HOUR - JANUARY 3, 2013
[ °C ]   °F
Local TimeTemperatureDewpointHumidityBarometerVisibilityWind DirectionWind SpeedGust SpeedPrecipitationEventsConditions
12:35 AM24.8 °F22.3 °F90 %30.27 in10.0 miCalmClear
12:55 AM23.5 °F22.3 °F95 %30.26 in7.0 miNW (320°)3.5 mphClear
1:15 AM22.8 °F23.0 °F100 %30.26 in7.0 miNW (320°)3.5 mphClear
1:35 AM23.0 °F23.0 °F100 %30.26 in7.0 miCalmScattered Clouds
1:55 AM22.3 °F22.3 °F100 %30.27 in7.0 miCalmScattered Clouds
2:15 AM21.7 °F21.9 °F100 %30.27 in7.0 miNNW (330°)3.5 mphMostly Cloudy
2:35 AM0.0 °F0.0 °F30.28 in7.0 miCalmOvercast
2:55 AM22.3 °F22.5 °F100 %30.28 in7.0 miCalmOvercast
3:15 AM23.2 °F23.2 °F100 %30.29 in7.0 miCalmOvercast
3:35 AM23.5 °F23.5 °F100 %30.29 in7.0 miCalmScattered Clouds
3:55 AM23.2 °F23.4 °F100 %30.30 in7.0 miCalmClear
4:15 AM22.1 °F22.3 °F100 %30.30 in7.0 miCalmClear
4:35 AM22.1 °F22.3 °F100 %30.31 in7.0 miCalmClear
4:55 AM21.4 °F21.6 °F100 %30.32 in5.0 miWSW (250°)4.6 mphClear
5:15 AM21.7 °F21.9 °F100 %30.33 in7.0 miWSW (240°)5.8 mphClear
5:35 AM21.7 °F21.9 °F100 %30.34 in7.0 miSW (220°)3.5 mphScattered Clouds
5:55 AM21.0 °F21.2 °F100 %30.34 in7.0 miCalmScattered Clouds
6:15 AM20.7 °F20.8 °F100 %30.34 in7.0 miCalmScattered Clouds
6:35 AM20.7 °F20.8 °F100 %30.35 in5.0 miCalmScattered Clouds
6:55 AM19.0 °F19.2 °F100 %30.35 in7.0 miCalmClear
7:15 AM19.8 °F19.9 °F100 %30.36 in5.0 miCalmClear
7:35 AM19.9 °F19.9 °F100 %30.36 in4.0 miCalmClear
7:55 AM20.3 °F20.5 °F100 %30.37 in5.0 miCalmClear
8:15 AM20.8 °F21.0 °F100 %30.37 in4.0 miCalmClear
8:35 AM22.8 °F22.8 °F100 %30.38 in5.0 miCalmClear
8:55 AM25.9 °F26.1 °F100 %30.39 in5.0 miWNW (300°)3.5 mphClear
9:15 AM28.0 °F28.2 °F100 %30.40 in7.0 miCalmClear
9:35 AM30.2 °F30.4 °F100 %30.41 in7.0 miCalmClear
9:55 AM30.7 °F30.9 °F100 %30.41 in10.0 miCalmClear
10:15 AM32.5 °F32.0 °F98 %30.41 in10.0 miCalmClear
10:35 AM35.4 °F31.5 °F85 %30.42 in10.0 miCalmClear
10:55 AM36.0 °F28.8 °F75 %30.42 in10.0 miWNW (300°)3.5 mphClear
11:15 AM37.8 °F28.0 °F68 %30.42 in10.0 miWNW (300°)5.8 mphClear
11:35 AM38.7 °F26.8 °F62 %30.41 in10.0 miNW (310°)5.8 mphClear
11:55 AM40.5 °F26.8 °F58 %30.40 in10.0 miWest (280°)6.9 mphClear
12:15 PM40.5 °F25.7 °F56 %30.39 in10.0 miNW (320°)6.9 mphClear
12:35 PM40.5 °F25.7 °F56 %30.38 in10.0 miWest (280°)5.8 mphScattered Clouds
12:55 PM40.8 °F25.2 °F54 %30.38 in10.0 miWest (280°)8.1 mphMostly Cloudy
1:15 PM40.5 °F24.6 °F53 %30.36 in10.0 miWest (260°)6.9 mphScattered Clouds
1:35 PM40.8 °F24.4 °F52 %30.36 in10.0 miWest (260°)8.1 mphMostly Cloudy
1:55 PM40.5 °F24.3 °F52 %30.36 in10.0 miNW (310°)5.8 mphScattered Clouds
2:15 PM41.4 °F24.6 °F51 %30.35 in10.0 miNW (320°)8.1 mphScattered Clouds
2:35 PM42.1 °F25.2 °F51 %30.36 in10.0 miNW (310°)6.9 mphScattered Clouds
2:55 PM40.8 °F26.4 °F57 %30.36 in10.0 miNW (320°)3.5 mphScattered Clouds
3:55 PM40.5 °F25.7 °F56 %30.37 in10.0 miNW (310°)8.1 mphClear
4:15 PM40.1 °F26.8 °F59 %30.38 in10.0 miNW (310°)5.8 mphClear
4:35 PM38.1 °F26.4 °F63 %30.38 in10.0 miNW (320°)6.9 mphClear
4:55 PM37.4 °F27.0 °F66 %30.39 in10.0 miNNW (340°)6.9 mphMostly Cloudy
5:15 PM35.8 °F26.6 °F69 %30.39 in10.0 miNorth (350°)6.9 mphOvercast
5:35 PM35.6 °F27.1 °F71 %30.39 in10.0 miNNW (340°)4.6 mphOvercast
5:55 PM35.6 °F27.5 °F72 %30.40 in10.0 miNNW (340°)5.8 mphOvercast
6:15 PM35.6 °F27.5 °F72 %30.40 in10.0 miNNW (330°)5.8 mphOvercast
6:35 PM35.6 °F27.7 °F73 %30.41 in10.0 miNNW (330°)6.9 mphOvercast
6:55 PM35.6 °F28.2 °F75 %30.41 in10.0 miNNW (330°)6.9 mphMostly Cloudy
7:15 PM35.6 °F28.4 °F75 %30.41 in10.0 miNNW (330°)5.8 mphMostly Cloudy
7:35 PM35.6 °F28.9 °F77 %30.42 in10.0 miNW (320°)4.6 mphOvercast
7:55 PM34.9 °F28.6 °F78 %30.42 in10.0 miNNW (330°)4.6 mphOvercast
8:15 PM32.9 °F27.3 °F80 %30.41 in10.0 miNW (320°)3.5 mphOvercast
8:35 PM32.7 °F27.9 °F82 %30.42 in10.0 miCalmMostly Cloudy
8:55 PM31.6 °F27.5 °F85 %30.42 in10.0 miCalmScattered Clouds
9:15 PM30.7 °F28.4 °F91 %30.42 in10.0 miCalmClear
9:35 PM30.7 °F29.1 °F94 %30.42 in10.0 miCalmClear
9:55 PM30.2 °F30.2 °F100 %30.41 in10.0 miCalmClear
10:15 PM28.8 °F28.9 °F100 %30.42 in10.0 miCalmClear
10:35 PM28.0 °F28.2 °F100 %30.42 in10.0 miCalmClear
10:55 PM26.8 °F27.0 °F100 %30.42 in10.0 miCalmClear
11:15 PM25.7 °F25.7 °F100 %30.42 in10.0 miCalmClear
11:35 PM25.5 °F25.5 °F100 %30.43 in10.0 miCalmClear
11:55 PM25.3 °F25.3 °F100 %30.42 in7.0 miCalmClear
Hourly data recorded from KPTS, located miles away from Redfield, Kansas







STORIES FROM OUR PARTNERS